OKEAN-O

Last updated on Mon Sep 15 2025 00:02:15 GMT+0000 (Coordinated Universal Time)

1 25860U 99039A 25257.14337314 .00000501 00000+0 73302-4 0 9992 2 25860 97.9742 313.5614 0001456 115.9135 244.2227 14.79934048408278
UTC large
Height (km)
Speed (km/s)
/
Latitude / Longitude
Inclination (degrees)
Orbital Period (minutes)
Azimuth
Elevation
Range (km)
Doppler Factor

Next 0 passes for location: London (51.5072 / 0.1276)

Sorry there are no passes over London.